Regional Weather Roundup
Issued by NWS

Home | Current Version | Previous Version | Graphics & Text | Print | Product List | Glossary On
Versions: 1 2 3 4 5 6 7 8 9 10 11 12 13 14 15 16 17 18 19 20 21 22 23 24 25 26 27 28 29 30 31 32 33 34 35 36 37 38 39 40 41 42 43 44 45 46 47 48 49 50
000
ASUS45 KSLC 190910
RWRUT

UTAH REGIONAL WEATHER ROUNDUP
NATIONAL WEATHER SERVICE SALT LAKE CITY UT
200 AM MST FRI DEC 19 2014

UTZ001>011-023>025-191000-

NORTHERN UTAH

CITY           SKY/WX    TMP DP  RH WIND       PRES   REMARKS
BRIGHAM CITY   CLOUDY    32  29  88 NW6       30.19S WCI  26
HILL AFB       MOCLDY    31  25  79 E13       30.17F WCI  21
LOGAN          CLOUDY    28  24  85 NE3       30.18R
OGDEN          MOCLDY    31  26  82 S9        30.17S WCI  23
PROVO AIRPORT  CLEAR     28  25  86 W3        30.21S
SALT LAKE CITY PTCLDY    33  27  78 SE13      30.18S WCI  24
VERNAL         CLOUDY    27  23  85 E3        30.22S
WENDOVER       MOCLDY    23  18  80 NE6       30.17S WCI  16
HEBER CITY     MOCLDY    21  19  93 E5        30.19S WCI  15
WEST JORDAN    CLEAR     32  30  93 S8        30.18F WCI  25

$$

UTZ012>022-026-027-191000-

SOUTHERN/CENTRAL UTAH

CITY           SKY/WX    TMP DP  RH WIND       PRES   REMARKS
BLANDING       CLEAR     26  24  90 NE3       30.25S
BRYCE CANYON   PTCLDY    12   9  87 W10       30.19F WCI  -1
CEDAR CITY     CLEAR     26  20  77 E7        30.18S WCI  18
DELTA          CLEAR     24  23  96 NE5       30.19S WCI  18
MILFORD        CLEAR     23  20  88 SE8       30.18S WCI  14
MOAB/CYNLANDS  CLOUDY    30  29  96 CALM      30.19S
PRICE          CLEAR     21  16  81 NE3       30.17S
ST GEORGE      SUNNY     37  30  75 SW3       30.25R
KANAB          CLEAR     30  30 100 N6        30.25F WCI  24

$$

REGIONAL REPORTS     COLORADO/ARIZONA

CITY           SKY/WX    TMP DP  RH WIND       PRES   REMARKS
CRAIG, CO      HAZE      23  17  78 CALM      30.18S VSB 3/4
GRAND JUNCTION CLOUDY    31  29  92 SE6       30.19S WCI  25
RIFLE          CLOUDY    30  26  85 E3        30.18S
MONTROSE       CLOUDY    32  30  92 CALM      30.20S
CORTEZ         CLEAR     20  17  88 NE6       30.18S WCI  12
PAGE, AZ       CLEAR     35  29  78 S3        30.20S
GRAND CANYON   CLEAR     18  16  92 CALM      30.21S
KINGMAN        CLEAR     33  30  88 CALM      30.21S
FLAGSTAFF      CLEAR     14  10  84 NE3       30.19F

$$

REGIONAL REPORTS    NEVADA/IDAHO/WYOMING

CITY           SKY/WX    TMP DP  RH WIND       PRES   REMARKS
LAS VEGAS, NV  PTCLDY    43  35  73 S9        30.18S
ELY            MOCLDY    20  17  88 S7        30.19S WCI  11
ELKO           MOCLDY    24  22  91 CALM      30.13F
POCATELLO, ID  CLOUDY    38  28  67 S14       30.13S WCI  30
BURLEY         CLOUDY    38  27  64 S13       30.10F WCI  30
EVANSTON, WY   PTCLDY    19  17  92 SW7       30.15R WCI  10
ROCK SPRINGS   PTCLDY    21  17  84 W13       30.12S WCI   9
KEMMERER       PTCLDY    23  19  86 W5        30.13R WCI  17

$$


USA.gov is the U.S. government's official web portal to all federal, state and local government web resources and services.